Flag for Netherlands Weather past 2 weeks in Kralendijk (Bonaire), Netherlands

Now
81 °F

Warm.


Feels Like: 85 °F
Forecast: 80 / 86 °F
Wind: 18 mph from East

Location: Flamingo Airport - Bonaire


UV Index: 10 (Very high)

Visibility: N/A


Pressure: 29.92 "Hg

Humidity: 79%

Dew point: 73 °F

Location of Kralendijk (Bonaire)Location

Historic Weather in Kralendijk (Bonaire)

°F

Kralendijk (Bonaire) temperature yesterday

Maximum temperature yesterday: 86 °F (at 11:00 AM)
Minimum temperature yesterday: 79 °F (at 2:00 AM)
Average temperature yesterday: 82 °F

Past Weeks' High & Low Weather Summary

 TemperatureHumidityPressure
High88 °F (Apr 9, 12:00 PM)84% (Apr 5, 2:00 AM)30.04 "Hg (Apr 5, 2:00 AM)
Low77 °F (Apr 14, 6:00 AM)58% (Apr 11, 5:00 PM)29.80 "Hg (Apr 14, 5:00 PM)
Average82 °F73%29.90 "Hg
* Reported Apr 5 2:00 AM — Apr 20 2:00 AM, Kralendijk (Bonaire), Weather by CustomWeather, © 2014

Note: Actual official high and low records may vary slightly from our data, if they occured in-between our weather recording intervals... More about our weather records

Advertising

Historic Weather Conditions — Data for Previous 24 hours

 ConditionsComfort  
Time TempWeatherWind HumidityBarometerVisibility
2:00 AM
Apr 20
N/A17 mphN/AN/AN/A
1:00 AM81 °FWarm.16 mph79%29.92 "HgN/A
12:00 AM81 °FWarm.17 mph79%29.95 "HgN/A
11:00 PM
Apr 19
81 °FWarm.20 mph79%29.95 "HgN/A
10:00 PM81 °FWarm.18 mph79%29.92 "HgN/A
8:00 PM81 °FPassing clouds.21 mph79%29.89 "HgN/A
7:00 PM81 °FPassing clouds.16 mph79%29.86 "HgN/A
6:00 PM82 °FPassing clouds.21 mph74%29.86 "HgN/A
5:00 PM82 °FPassing clouds.24 mph74%29.83 "HgN/A
3:00 PM86 °FPassing clouds.25 mph66%29.89 "HgN/A
2:00 PM86 °FScattered clouds.26 mph66%29.89 "HgN/A
1:00 PM84 °FPartly sunny.25 mph70%29.92 "HgN/A
12:00 PM86 °FWarm.22 mph66%29.95 "HgN/A
11:00 AM86 °FWarm.24 mph66%29.95 "HgN/A
10:00 AM84 °FScattered clouds.24 mph70%29.95 "HgN/A
9:00 AM84 °FPassing clouds.23 mph70%29.95 "HgN/A
8:00 AM82 °FWarm.22 mph74%29.92 "HgN/A
7:00 AM81 °FWarm.18 mph74%29.89 "HgN/A
6:00 AM79 °FWarm.17 mph79%29.89 "HgN/A
3:00 AM79 °FWarm.18 mph79%29.89 "HgN/A
Weather by CustomWeather, © 2014

See weather overview